Appleton, WI

1:11 AM CST on December 10, 2019 (GMT -0600)
Outagamie County Regional

Weather History for KATW - August, 2019

Change the Weather History Date:

Saturday, August 10, 2019

  Actual Average Record
Temperature  
Mean Temperature 66 °F -  
Max Temperature 78 °F 78 °F 90 °F (1988)
Min Temperature 55 °F 59 °F 49 °F (1972)
Cooling Degree Days 2    
Growing Degree Days 16 (Base 50)    
Moisture  
Dew Point 51 °F    
Average Humidity 61    
Maximum Humidity 94    
Minimum Humidity 32    
Precipitation  
Precipitation 0.00 in - - ()
Sea Level Pressure  
Sea Level Pressure 29.99 in    
Wind  
Wind Speed 4 mph (NW)    
Max Wind Speed 8 mph    
Max Gust Speed -    
Visibility 10 miles    
Events      
Averages and records for this station are not official NWS values.
T = Trace of Precipitation, MM = Missing Value Source: NWS Daily Summary

Daily Weather History Graph

Daily Weather History Graph

Search for Another Location

Airport or City:

Astronomy

Aug. 10, 2019 Rise Set
Actual Time 5:51 AM CDT 8:06 PM CDT
Civil Twilight 5:19 AM CDT 8:38 PM CDT
Nautical Twilight 4:39 AM CDT 9:18 PM CDT
Astronomical Twilight 3:55 AM CDT 10:02 PM CDT
Moon 4:53 PM CDT 1:24 AM CDT
Length of Visible Light 15h 19m
Length of Day
14h 15m
Waxing Gibbous, 79% of the Moon is Illuminated
Aug 10
Waxing Gibbous
Aug 15
Full
Aug 23
Last Quarter
Aug 30
New
Sep 5
First Quarter

Hourly Weather History & Observations

Time (CDT) Temp. Dew Point Humidity Pressure Visibility Wind Dir Wind Speed Gust Speed Precip Events Conditions
12:15 AM 62.6 °F 50.0 °F 63% 29.96 in 10.0 mi WNW 8.1 mph - N/A   Clear
12:35 AM 60.8 °F 50.0 °F 68% 29.96 in 10.0 mi WNW 8.1 mph - N/A   Clear
12:55 AM 60.8 °F 50.0 °F 68% 29.96 in 10.0 mi NW 6.9 mph - N/A   Clear
1:15 AM 60.8 °F 50.0 °F 68% 29.96 in 10.0 mi NNW 5.8 mph - N/A   Clear
1:35 AM 60.8 °F 50.0 °F 68% 29.96 in 10.0 mi NNW 6.9 mph - N/A   Clear
1:55 AM 60.8 °F 50.0 °F 68% 29.96 in 10.0 mi North 5.8 mph - N/A   Clear
2:15 AM 60.8 °F 50.0 °F 68% 29.97 in 10.0 mi North 5.8 mph - N/A   Clear
2:35 AM 60.8 °F 50.0 °F 68% 29.97 in 10.0 mi North 4.6 mph - N/A   Clear
2:55 AM 59.0 °F 48.2 °F 67% 29.97 in 10.0 mi North 5.8 mph - N/A   Clear
3:15 AM 59.0 °F 48.2 °F 67% 29.98 in 10.0 mi North 4.6 mph - N/A   Clear
3:35 AM 59.0 °F 48.2 °F 67% 29.98 in 10.0 mi North 3.5 mph - N/A   Clear
3:55 AM 57.2 °F 48.2 °F 72% 29.98 in 10.0 mi North 4.6 mph - N/A   Clear
4:15 AM 57.2 °F 50.0 °F 77% 29.98 in 10.0 mi Calm Calm - N/A   Clear
4:35 AM 59.0 °F 50.0 °F 72% 29.97 in 10.0 mi Calm Calm - N/A   Clear
4:55 AM 59.0 °F 48.2 °F 67% 29.98 in 10.0 mi Calm Calm - N/A   Clear
5:15 AM 55.4 °F 51.8 °F 88% 29.98 in 10.0 mi Calm Calm - N/A   Clear
5:45 AM 55.4 °F 53.6 °F 94% 29.99 in 10.0 mi Variable 4.6 mph - N/A   Scattered Clouds
6:45 AM 57.2 °F 55.4 °F 94% 30.01 in 10.0 mi Calm Calm - N/A   Scattered Clouds
7:45 AM 62.6 °F 57.2 °F 82% 30.01 in 10.0 mi West 4.6 mph - N/A   Scattered Clouds
8:45 AM 68.0 °F 57.2 °F 68% 30.01 in 10.0 mi Variable 4.6 mph - N/A   Scattered Clouds
9:45 AM 71.6 °F 50.0 °F 46% 30.02 in 10.0 mi Calm Calm - N/A   Scattered Clouds
10:45 AM 73.4 °F 48.2 °F 41% 30.03 in 10.0 mi Calm Calm - N/A   Scattered Clouds
11:45 AM 75.2 °F 50.0 °F 41% 30.02 in 10.0 mi Variable 4.6 mph - N/A   Mostly Cloudy
12:45 PM 75.2 °F 46.4 °F 36% 30.01 in 10.0 mi Variable 4.6 mph - N/A   Mostly Cloudy
1:45 PM 75.2 °F 48.2 °F 38% 30.01 in 10.0 mi Calm Calm - N/A   Mostly Cloudy
2:45 PM 75.2 °F 46.4 °F 36% 30.00 in 10.0 mi Calm Calm - N/A   Mostly Cloudy
3:45 PM 75.2 °F 48.2 °F 38% 29.99 in 10.0 mi Calm Calm - N/A   Mostly Cloudy
4:45 PM 78.8 °F 46.4 °F 32% 29.98 in 10.0 mi West 6.9 mph - N/A   Mostly Cloudy
5:45 PM 75.2 °F 48.2 °F 38% 29.98 in 10.0 mi Calm Calm - N/A   Mostly Cloudy
6:45 PM 75.2 °F 51.8 °F 44% 29.97 in 10.0 mi Calm Calm - N/A   Scattered Clouds
7:45 PM 73.4 °F 53.6 °F 50% 29.98 in 10.0 mi Calm Calm - N/A   Scattered Clouds
8:45 PM 71.6 °F 53.6 °F 53% 29.98 in 10.0 mi Calm Calm - N/A   Scattered Clouds
9:45 PM 71.6 °F 53.6 °F 53% 29.98 in 10.0 mi Calm Calm - N/A   Scattered Clouds
10:45 PM 66.2 °F 55.4 °F 68% 29.98 in 10.0 mi Calm Calm - N/A   Mostly Cloudy
10:55 PM 68.0 °F 55.4 °F 64% 29.99 in 10.0 mi South 3.5 mph - N/A   Mostly Cloudy
11:15 PM 68.0 °F 55.4 °F 64% 29.99 in 10.0 mi South 4.6 mph - N/A   Mostly Cloudy
11:35 PM 68.0 °F 55.4 °F 64% 29.99 in 10.0 mi South 4.6 mph - N/A   Overcast
11:55 PM 68.0 °F 57.2 °F 68% 29.99 in 10.0 mi South 5.8 mph - N/A   Overcast